Lid_Strength_Index
0 0 0 1 1 1 1 1 1 0 -0 -0 -1 -1 -1 -1 -1 2 4 2 -0 -4 -3 3 3 4 4 5 4 5 10 13 11 10 9 7 8 7 7 8 7 8 8 6 4
1 1 1 2 2 2 2 2 2 1 0 -1 -1 -1 -1 -1 2 4 -1 -4 -4 -3 4 5 6 6 8 6 6 8 11 11 7 8 8 7 7 8 8 9 9 7 6 4 4
2 2 2 2 3 3 2 2 2 2 1 -0 -0 -1 -1 -1 4 6 -3 -3 -4 -1 3 5 5 6 8 8 8 7 10 7 7 6 6 7 7 6 8 9 8 8 6 5 5
3 3 3 3 3 3 3 2 2 2 1 1 0 -1 -1 2 11 5 -2 -2 -4 2 4 5 7 8 9 9 7 10 8 8 7 5 6 7 6 7 7 7 5 7 5 5 6
3 3 3 3 3 3 3 3 3 2 2 1 0 -1 2 6 6 4 -3 -1 4 4 5 6 8 9 10 10 9 11 9 8 7 6 6 6 7 7 7 6 6 6 5 5 5
3 3 3 3 4 3 3 3 2 2 1 1 -0 0 5 10 6 4 4 4 4 5 6 7 8 8 10 10 11 9 9 9 9 8 7 7 7 7 7 5 6 6 6 5 5
4 4 4 4 3 3 3 2 2 2 1 1 -0 1 6 7 6 5 4 5 5 4 6 6 6 8 9 10 9 9 11 11 10 9 9 8 10 9 7 7 7 7 7 6 5
4 3 4 4 3 3 3 2 2 2 1 0 0 3 8 5 6 5 5 5 5 5 5 5 6 7 9 9 9 12 13 14 10 9 10 9 13 10 8 10 9 8 8 7 5
4 4 4 4 4 3 3 2 2 1 0 0 4 6 10 4 7 6 6 6 5 6 6 4 6 9 9 12 13 13 16 14 12 10 10 11 13 9 8 9 10 10 9 9 7
4 4 4 4 3 3 3 2 2 1 2 2 3 10 8 9 6 6 7 5 7 7 7 8 9 12 12 13 17 15 15 14 14 11 11 12 12 11 9 10 10 10 10 10 9
4 3 4 3 3 3 4 5 7 7 6 8 8 8 7 6 6 8 7 7 8 9 13 10 13 15 13 12 12 13 14 14 12 10 13 13 13 12 11 11 12 12 11 10 10
4 4 4 4 4 4 4 7 7 7 10 5 6 7 6 6 8 8 7 10 10 13 12 13 15 12 10 11 12 13 14 14 12 11 12 13 13 12 11 11 11 11 12 11 10
5 4 4 4 4 6 6 6 4 4 10 7 7 7 7 7 8 10 8 9 11 13 13 15 13 10 11 13 13 14 15 15 14 12 12 13 13 12 11 11 10 11 11 10 10
4 4 4 4 7 8 7 6 5 4 12 11 8 7 7 6 9 7 7 9 11 13 12 13 11 11 12 13 13 16 12 12 12 14 17 14 17 14 13 12 11 12 12 11 10
4 4 4 4 9 8 7 7 6 6 17 10 9 6 7 8 9 9 7 9 12 12 12 13 12 12 12 12 11 13 11 13 13 15 16 15 17 15 13 13 12 11 10 11 10
4 4 4 6 7 7 7 6 6 13 17 11 9 9 10 9 10 8 9 9 9 11 12 12 10 11 12 11 11 10 13 13 14 15 18 16 16 16 14 13 13 11 10 10 9
4 4 5 5 9 7 6 7 14 17 11 12 11 10 11 11 11 10 11 13 13 15 15 13 12 11 11 13 12 12 15 18 18 19 18 15 16 15 13 11 10 11 10 10 9
5 4 5 5 6 5 6 11 17 12 12 9 10 10 12 11 12 11 12 14 12 13 15 16 16 13 11 13 14 14 15 17 20 20 18 14 17 14 11 10 10 9 10 9 9
5 8 9 8 7 6 9 16 16 13 10 11 11 14 14 11 13 13 13 13 12 12 16 16 15 12 11 12 12 14 16 14 16 17 18 16 15 12 12 12 10 10 9 9 8
9 9 9 7 7 7 12 13 12 10 10 10 14 12 15 13 13 13 13 11 11 9 11 14 16 13 12 12 12 14 12 16 16 20 20 17 17 16 14 13 11 10 10 9 8
9 11 8 7 7 10 14 13 11 8 9 11 12 13 12 13 12 13 13 11 10 10 10 12 15 14 13 14 14 14 15 15 15 16 19 19 17 12 12 11 12 11 10 9 9
11 14 9 8 12 13 13 11 9 9 9 9 9 10 12 12 13 13 13 11 9 9 12 11 14 17 14 13 12 13 14 14 17 17 17 17 17 11 11 11 11 11 10 10 10
13 13 9 9 15 15 12 10 10 10 11 10 11 11 11 12 14 11 11 9 9 10 12 11 14 17 16 14 12 13 13 13 14 15 17 18 17 10 11 11 12 12 11 11 10
12 15 13 13 14 15 15 13 12 11 11 10 11 11 12 13 12 12 12 10 10 10 7 9 13 14 17 15 13 14 12 12 13 17 17 16 14 12 12 12 12 12 12 12 11
13 15 13 17 15 15 15 14 15 15 13 12 13 13 14 15 14 14 13 12 10 9 12 14 16 14 14 13 13 13 12 12 13 13 15 14 12 13 13 13 12 12 11 12 12
14 15 12 15 14 15 14 15 15 14 13 14 14 14 14 16 15 16 15 14 14 13 13 13 17 16 17 14 14 15 13 13 12 12 13 12 13 12 12 13 13 12 11 12 12
11 11 13 14 15 16 16 15 14 13 13 12 13 14 15 14 13 13 13 13 13 15 15 15 16 17 19 16 15 17 15 14 15 15 14 17 15 14 14 13 13 13 12 12 12